Year,Month,Day,Hour,Minute,Value (Times are PST for temperature in C)
2017,08,18,00,00,17.30
2017,08,18,00,01,17.30
2017,08,18,00,02,17.30
2017,08,18,00,03,17.30
2017,08,18,00,04,17.30
2017,08,18,00,05,17.30
2017,08,18,00,06,17.30
2017,08,18,00,07,17.30
2017,08,18,00,08,17.30
2017,08,18,00,09,17.30
2017,08,18,00,10,17.20
2017,08,18,00,11,17.20
2017,08,18,00,12,17.20
2017,08,18,00,13,17.20
2017,08,18,00,14,17.20
2017,08,18,00,15,17.20
2017,08,18,00,16,17.20
2017,08,18,00,17,17.20
2017,08,18,00,18,17.20
2017,08,18,00,19,17.20
2017,08,18,00,20,17.20
2017,08,18,00,21,17.20
2017,08,18,00,22,17.20
2017,08,18,00,23,17.20
2017,08,18,00,24,17.20
2017,08,18,00,25,17.20
2017,08,18,00,26,17.20
2017,08,18,00,27,17.10
2017,08,18,00,28,17.10
2017,08,18,00,29,17.10
2017,08,18,00,30,17.10
2017,08,18,00,31,17.10
2017,08,18,00,32,17.10
2017,08,18,00,33,17.10
2017,08,18,00,34,17.10
2017,08,18,00,35,17.00
2017,08,18,00,36,17.00
2017,08,18,00,37,17.00
2017,08,18,00,38,16.90
2017,08,18,00,39,16.90
2017,08,18,00,40,16.90
2017,08,18,00,41,16.90
2017,08,18,00,42,16.90
2017,08,18,00,43,16.90
2017,08,18,00,44,16.80
2017,08,18,00,45,16.80
2017,08,18,00,46,16.80
2017,08,18,00,47,16.80
2017,08,18,00,48,16.80
2017,08,18,00,49,16.80
2017,08,18,00,50,16.80
2017,08,18,00,51,16.80
2017,08,18,00,52,16.80
2017,08,18,00,53,16.80
2017,08,18,00,54,16.80
2017,08,18,00,55,16.80
2017,08,18,00,56,16.80
2017,08,18,00,57,16.80
2017,08,18,00,58,16.80
2017,08,18,00,59,16.80
2017,08,18,01,00,16.80
2017,08,18,01,01,16.80
2017,08,18,01,02,16.80
2017,08,18,01,03,16.80
2017,08,18,01,04,16.80
2017,08,18,01,05,16.80
2017,08,18,01,06,16.80
2017,08,18,01,07,16.80
2017,08,18,01,08,16.80
2017,08,18,01,09,16.80
2017,08,18,01,10,16.70
2017,08,18,01,11,16.70
2017,08,18,01,12,16.70
2017,08,18,01,13,16.70
2017,08,18,01,14,16.70
2017,08,18,01,15,16.70
2017,08,18,01,16,16.70
2017,08,18,01,17,16.70
2017,08,18,01,18,16.70
2017,08,18,01,19,16.60
2017,08,18,01,20,16.60
2017,08,18,01,21,16.60
2017,08,18,01,22,16.70
2017,08,18,01,23,16.70
2017,08,18,01,24,16.70
2017,08,18,01,25,16.70
2017,08,18,01,26,16.70
2017,08,18,01,27,16.70
2017,08,18,01,28,16.70
2017,08,18,01,29,16.70
2017,08,18,01,30,16.70
2017,08,18,01,31,16.70
2017,08,18,01,32,16.70
2017,08,18,01,33,16.70
2017,08,18,01,34,16.70
2017,08,18,01,35,16.70
2017,08,18,01,36,16.70
2017,08,18,01,37,16.70
2017,08,18,01,38,16.70
2017,08,18,01,39,16.70
2017,08,18,01,40,16.70
2017,08,18,01,41,16.80
2017,08,18,01,42,16.80
2017,08,18,01,43,16.80
2017,08,18,01,44,16.80
2017,08,18,01,45,16.80
2017,08,18,01,46,16.80
2017,08,18,01,47,16.80
2017,08,18,01,48,16.80
2017,08,18,01,49,16.80
2017,08,18,01,50,16.80
2017,08,18,01,51,16.80
2017,08,18,01,52,16.80
2017,08,18,01,53,16.80
2017,08,18,01,54,16.80
2017,08,18,01,55,16.80
2017,08,18,01,56,16.80
2017,08,18,01,57,16.80
2017,08,18,01,58,16.80
2017,08,18,01,59,16.80
2017,08,18,02,00,16.80
2017,08,18,02,01,16.80
2017,08,18,02,02,16.80
2017,08,18,02,03,16.70
2017,08,18,02,04,16.70
2017,08,18,02,05,16.70
2017,08,18,02,06,16.70
2017,08,18,02,07,16.70
2017,08,18,02,08,16.70
2017,08,18,02,09,16.70
2017,08,18,02,10,16.70
2017,08,18,02,11,16.70
2017,08,18,02,12,16.70
2017,08,18,02,13,16.70
2017,08,18,02,14,16.70
2017,08,18,02,15,16.70
2017,08,18,02,16,16.70
2017,08,18,02,17,16.70
2017,08,18,02,18,16.70
2017,08,18,02,19,16.70
2017,08,18,02,20,16.70
2017,08,18,02,21,16.70
2017,08,18,02,22,16.60
2017,08,18,02,23,16.60
2017,08,18,02,24,16.60
2017,08,18,02,25,16.60
2017,08,18,02,26,16.60
2017,08,18,02,27,16.60
2017,08,18,02,28,16.50
2017,08,18,02,29,16.50
2017,08,18,02,30,16.50
2017,08,18,02,31,16.50
2017,08,18,02,32,16.50
2017,08,18,02,33,16.50
2017,08,18,02,34,16.50
2017,08,18,02,35,16.50
2017,08,18,02,36,16.50
2017,08,18,02,37,16.50
2017,08,18,02,38,16.50
2017,08,18,02,39,16.60
2017,08,18,02,40,16.60
2017,08,18,02,41,16.60
2017,08,18,02,42,16.60
2017,08,18,02,43,16.60
2017,08,18,02,44,16.60
2017,08,18,02,45,16.60
2017,08,18,02,46,16.60
2017,08,18,02,47,16.60
2017,08,18,02,48,16.60
2017,08,18,02,49,16.60
2017,08,18,02,50,16.60
2017,08,18,02,51,16.60
2017,08,18,02,52,16.60
2017,08,18,02,53,16.60
2017,08,18,02,54,16.50
2017,08,18,02,55,16.50
2017,08,18,02,56,16.50
2017,08,18,02,57,16.50
2017,08,18,02,58,16.50
2017,08,18,02,59,16.50
2017,08,18,03,00,16.60
2017,08,18,03,01,16.60
2017,08,18,03,02,16.60
2017,08,18,03,03,16.50
2017,08,18,03,04,16.60
2017,08,18,03,05,16.50
2017,08,18,03,06,16.50
2017,08,18,03,07,16.50
2017,08,18,03,08,16.50
2017,08,18,03,09,16.50
2017,08,18,03,10,16.50
2017,08,18,03,11,16.50
2017,08,18,03,12,16.50
2017,08,18,03,13,16.40
2017,08,18,03,14,16.50
2017,08,18,03,15,16.40
2017,08,18,03,16,16.40
2017,08,18,03,17,16.40
2017,08,18,03,18,16.40
2017,08,18,03,19,16.40
2017,08,18,03,20,16.40
2017,08,18,03,21,16.40
2017,08,18,03,22,16.40
2017,08,18,03,23,16.40
2017,08,18,03,24,16.40
2017,08,18,03,25,16.30
2017,08,18,03,26,16.30
2017,08,18,03,27,16.30
2017,08,18,03,28,16.30
2017,08,18,03,29,16.30
2017,08,18,03,30,16.30
2017,08,18,03,31,16.20
2017,08,18,03,32,16.20
2017,08,18,03,33,16.20
2017,08,18,03,34,16.20
2017,08,18,03,35,16.10
2017,08,18,03,36,16.10
2017,08,18,03,37,16.10
2017,08,18,03,38,16.10
2017,08,18,03,39,16.10
2017,08,18,03,40,16.00
2017,08,18,03,41,16.00
2017,08,18,03,42,16.00
2017,08,18,03,43,15.90
2017,08,18,03,44,15.90
2017,08,18,03,45,15.90
2017,08,18,03,46,15.90
2017,08,18,03,47,15.90
2017,08,18,03,48,15.90
2017,08,18,03,49,15.90
2017,08,18,03,50,15.80
2017,08,18,03,51,15.80
2017,08,18,03,52,15.80
2017,08,18,03,53,15.80
2017,08,18,03,54,15.80
2017,08,18,03,55,15.80
2017,08,18,03,56,15.80
2017,08,18,03,57,15.80
2017,08,18,03,58,15.70
2017,08,18,03,59,15.70
2017,08,18,04,00,15.70
2017,08,18,04,01,15.70
2017,08,18,04,02,15.60
2017,08,18,04,03,15.60
2017,08,18,04,04,15.60
2017,08,18,04,05,15.60
2017,08,18,04,06,15.50
2017,08,18,04,07,15.50
2017,08,18,04,08,15.40
2017,08,18,04,09,15.40
2017,08,18,04,10,15.40
2017,08,18,04,11,15.40
2017,08,18,04,12,15.40
2017,08,18,04,13,15.30
2017,08,18,04,14,15.30
2017,08,18,04,15,15.30
2017,08,18,04,16,15.30
2017,08,18,04,17,15.30
2017,08,18,04,18,15.30
2017,08,18,04,19,15.30
2017,08,18,04,20,15.20
2017,08,18,04,21,15.20
2017,08,18,04,22,15.20
2017,08,18,04,23,15.20
2017,08,18,04,24,15.20
2017,08,18,04,25,15.20
2017,08,18,04,26,15.20
2017,08,18,04,27,15.10
2017,08,18,04,28,15.10
2017,08,18,04,29,15.10
2017,08,18,04,30,15.10
2017,08,18,04,31,15.10
2017,08,18,04,32,15.10
2017,08,18,04,33,15.10
2017,08,18,04,34,15.00
2017,08,18,04,35,15.00
2017,08,18,04,36,15.00
2017,08,18,04,37,15.00
2017,08,18,04,38,15.00
2017,08,18,04,39,14.90
2017,08,18,04,40,14.90
2017,08,18,04,41,14.90
2017,08,18,04,42,14.90
2017,08,18,04,43,14.80
2017,08,18,04,44,14.80
2017,08,18,04,45,14.80
2017,08,18,04,46,14.80
2017,08,18,04,47,14.80
2017,08,18,04,48,14.80
2017,08,18,04,49,14.80
2017,08,18,04,50,14.80
2017,08,18,04,51,14.80
2017,08,18,04,52,14.80
2017,08,18,04,53,14.70
2017,08,18,04,54,14.70
2017,08,18,04,55,14.70
2017,08,18,04,56,14.70
2017,08,18,04,57,14.70
2017,08,18,04,58,14.70
2017,08,18,04,59,14.70
2017,08,18,05,00,14.60
2017,08,18,05,01,14.60
2017,08,18,05,02,14.60
2017,08,18,05,03,14.60
2017,08,18,05,04,14.60
2017,08,18,05,05,14.60
2017,08,18,05,06,14.50
2017,08,18,05,07,14.50
2017,08,18,05,08,14.50
2017,08,18,05,09,14.50
2017,08,18,05,10,14.50
2017,08,18,05,11,14.40
2017,08,18,05,12,14.40
2017,08,18,05,13,14.40
2017,08,18,05,14,14.40
2017,08,18,05,15,14.40
2017,08,18,05,16,14.40
2017,08,18,05,17,14.40
2017,08,18,05,18,14.40
2017,08,18,05,19,14.40
2017,08,18,05,20,14.40
2017,08,18,05,21,14.40
2017,08,18,05,22,14.40
2017,08,18,05,23,14.40
2017,08,18,05,24,14.40
2017,08,18,05,25,14.40
2017,08,18,05,26,14.40
2017,08,18,05,27,14.40
2017,08,18,05,28,14.40
2017,08,18,05,29,14.40
2017,08,18,05,30,14.40
2017,08,18,05,31,14.40
2017,08,18,05,32,14.40
2017,08,18,05,33,14.40
2017,08,18,05,34,14.40
2017,08,18,05,35,14.40
2017,08,18,05,36,14.40
2017,08,18,05,37,14.40
2017,08,18,05,38,14.40
2017,08,18,05,39,14.40
2017,08,18,05,40,14.40
2017,08,18,05,41,14.30
2017,08,18,05,42,14.30
2017,08,18,05,43,14.30
2017,08,18,05,44,14.30
2017,08,18,05,45,14.30
2017,08,18,05,46,14.30
2017,08,18,05,47,14.30
2017,08,18,05,48,14.30
2017,08,18,05,49,14.30
2017,08,18,05,50,14.30
2017,08,18,05,51,14.30
2017,08,18,05,52,14.30
2017,08,18,05,53,14.30
2017,08,18,05,54,14.30
2017,08,18,05,55,14.30
2017,08,18,05,56,14.30
2017,08,18,05,57,14.30
2017,08,18,05,58,14.30
2017,08,18,05,59,14.40
2017,08,18,06,00,14.40
2017,08,18,06,01,14.40
2017,08,18,06,02,14.40
2017,08,18,06,03,14.40
2017,08,18,06,04,14.40
2017,08,18,06,05,14.40
2017,08,18,06,06,14.40
2017,08,18,06,07,14.40
2017,08,18,06,08,14.40
2017,08,18,06,09,14.40
2017,08,18,06,10,14.40
2017,08,18,06,11,14.40
2017,08,18,06,12,14.40
2017,08,18,06,13,14.40
2017,08,18,06,14,14.40
2017,08,18,06,15,14.50
2017,08,18,06,16,14.50
2017,08,18,06,17,14.50
2017,08,18,06,18,14.50
2017,08,18,06,19,14.60
2017,08,18,06,20,14.60
2017,08,18,06,21,14.60
2017,08,18,06,22,14.50
2017,08,18,06,23,14.50
2017,08,18,06,24,14.50
2017,08,18,06,25,14.50
2017,08,18,06,26,14.40
2017,08,18,06,27,14.40
2017,08,18,06,28,14.40
2017,08,18,06,29,14.40
2017,08,18,06,30,14.30
2017,08,18,06,31,14.30
2017,08,18,06,32,14.30
2017,08,18,06,33,14.30
2017,08,18,06,34,14.30
2017,08,18,06,35,14.20
2017,08,18,06,36,14.20
2017,08,18,06,37,14.20
2017,08,18,06,38,14.20
2017,08,18,06,39,14.10
2017,08,18,06,40,14.10
2017,08,18,06,41,14.10
2017,08,18,06,42,14.10
2017,08,18,06,43,14.10
2017,08,18,06,44,14.10
2017,08,18,06,45,14.10
2017,08,18,06,46,14.10
2017,08,18,06,47,14.10
2017,08,18,06,48,14.10
2017,08,18,06,49,14.10
2017,08,18,06,50,14.10
2017,08,18,06,51,14.10
2017,08,18,06,52,14.10
2017,08,18,06,53,14.10
2017,08,18,06,54,14.10
2017,08,18,06,55,14.10
2017,08,18,06,56,14.20
2017,08,18,06,57,14.20
2017,08,18,06,58,14.20
2017,08,18,06,59,14.20
2017,08,18,07,00,14.20
2017,08,18,07,01,14.20
2017,08,18,07,02,14.30
2017,08,18,07,03,14.30
2017,08,18,07,04,14.30
2017,08,18,07,05,14.30
2017,08,18,07,06,14.30
2017,08,18,07,07,14.30
2017,08,18,07,08,14.30
2017,08,18,07,09,14.30
2017,08,18,07,10,14.30
2017,08,18,07,11,14.40
2017,08,18,07,12,14.40
2017,08,18,07,13,14.40
2017,08,18,07,14,14.50
2017,08,18,07,15,14.50
2017,08,18,07,16,14.60
2017,08,18,07,17,14.60
2017,08,18,07,18,14.60
2017,08,18,07,19,14.70
2017,08,18,07,20,14.70
2017,08,18,07,21,14.70
2017,08,18,07,22,14.80
2017,08,18,07,23,14.80
2017,08,18,07,24,14.80
2017,08,18,07,25,14.80
2017,08,18,07,26,14.80
2017,08,18,07,27,14.90
2017,08,18,07,28,14.90
2017,08,18,07,29,14.90
2017,08,18,07,30,14.90
2017,08,18,07,31,15.00
2017,08,18,07,32,15.00
2017,08,18,07,33,15.00
2017,08,18,07,34,15.00
2017,08,18,07,35,15.00
2017,08,18,07,36,15.10
2017,08,18,07,37,15.10
2017,08,18,07,38,15.10
2017,08,18,07,39,15.10
2017,08,18,07,40,15.20
2017,08,18,07,41,15.20
2017,08,18,07,42,15.20
2017,08,18,07,43,15.30
2017,08,18,07,44,15.30
2017,08,18,07,45,15.40
2017,08,18,07,46,15.40
2017,08,18,07,47,15.40
2017,08,18,07,48,15.50
2017,08,18,07,49,15.50
2017,08,18,07,50,15.50
2017,08,18,07,51,15.60
2017,08,18,07,52,15.60
2017,08,18,07,53,15.60
2017,08,18,07,54,15.60
2017,08,18,07,55,15.60
2017,08,18,07,56,15.70
2017,08,18,07,57,15.70
2017,08,18,07,58,15.70
2017,08,18,07,59,15.70
2017,08,18,08,00,15.70
2017,08,18,08,01,15.70
2017,08,18,08,02,15.70
2017,08,18,08,03,15.70
2017,08,18,08,04,15.80
2017,08,18,08,05,15.80
2017,08,18,08,06,15.80
2017,08,18,08,07,15.90
2017,08,18,08,08,16.00
2017,08,18,08,09,16.00
2017,08,18,08,10,16.10
2017,08,18,08,11,16.10
2017,08,18,08,12,16.20
2017,08,18,08,13,16.20
2017,08,18,08,14,16.30
2017,08,18,08,15,16.30
2017,08,18,08,16,16.30
2017,08,18,08,17,16.30
2017,08,18,08,18,16.30
2017,08,18,08,19,16.40
2017,08,18,08,20,16.40
2017,08,18,08,21,16.40
2017,08,18,08,22,16.40
2017,08,18,08,23,16.40
2017,08,18,08,24,16.40
2017,08,18,08,25,16.40
2017,08,18,08,26,16.50
2017,08,18,08,27,16.50
2017,08,18,08,28,16.60
2017,08,18,08,29,16.60
2017,08,18,08,30,16.60
2017,08,18,08,31,16.70
2017,08,18,08,32,16.70
2017,08,18,08,33,16.80
2017,08,18,08,34,16.80
2017,08,18,08,35,16.90
2017,08,18,08,36,16.90
2017,08,18,08,37,17.00
2017,08,18,08,38,17.00
2017,08,18,08,39,17.10
2017,08,18,08,40,17.10
2017,08,18,08,41,17.20
2017,08,18,08,42,17.20
2017,08,18,08,43,17.20
2017,08,18,08,44,17.30
2017,08,18,08,45,17.30
2017,08,18,08,46,17.30
2017,08,18,08,47,17.40
2017,08,18,08,48,17.40
2017,08,18,08,49,17.40
2017,08,18,08,50,17.50
2017,08,18,08,51,17.50
2017,08,18,08,52,17.60
2017,08,18,08,53,17.60
2017,08,18,08,54,17.70
2017,08,18,08,55,17.90
2017,08,18,08,56,18.00
2017,08,18,08,57,18.10
2017,08,18,08,58,18.20
2017,08,18,08,59,18.20
2017,08,18,09,00,18.20
2017,08,18,09,01,18.20
2017,08,18,09,02,18.10
2017,08,18,09,03,18.10
2017,08,18,09,04,18.10
2017,08,18,09,05,18.10
2017,08,18,09,06,18.00
2017,08,18,09,07,18.00
2017,08,18,09,08,18.00
2017,08,18,09,09,18.00
2017,08,18,09,10,18.00
2017,08,18,09,11,18.00
2017,08,18,09,12,18.00
2017,08,18,09,13,17.90
2017,08,18,09,14,17.90
2017,08,18,09,15,17.90
2017,08,18,09,16,18.00
2017,08,18,09,17,18.00
2017,08,18,09,18,18.10
2017,08,18,09,19,18.10
2017,08,18,09,20,18.10
2017,08,18,09,21,18.20
2017,08,18,09,22,18.20
2017,08,18,09,23,18.20
2017,08,18,09,24,18.20
2017,08,18,09,25,18.20
2017,08,18,09,26,18.20
2017,08,18,09,27,18.20
2017,08,18,09,28,18.20
2017,08,18,09,29,18.20
2017,08,18,09,30,18.30
2017,08,18,09,31,18.30
2017,08,18,09,32,18.40
2017,08,18,09,33,18.40
2017,08,18,09,34,18.40
2017,08,18,09,35,18.40
2017,08,18,09,36,18.40
2017,08,18,09,37,18.40
2017,08,18,09,38,18.40
2017,08,18,09,39,18.30
2017,08,18,09,40,18.20
2017,08,18,09,41,18.10
2017,08,18,09,42,17.90
2017,08,18,09,43,17.90
2017,08,18,09,44,17.80
2017,08,18,09,45,17.80
2017,08,18,09,46,17.80
2017,08,18,09,47,17.70
2017,08,18,09,48,17.60
2017,08,18,09,49,17.50
2017,08,18,09,50,17.40
2017,08,18,09,51,17.30
2017,08,18,09,52,17.30
2017,08,18,09,53,17.30
2017,08,18,09,54,17.20
2017,08,18,09,55,17.30
2017,08,18,09,56,17.30
2017,08,18,09,57,17.30
2017,08,18,09,58,17.20
2017,08,18,09,59,17.30
2017,08,18,10,00,17.30
2017,08,18,10,01,17.30
2017,08,18,10,02,17.30
2017,08,18,10,03,17.30
2017,08,18,10,04,17.30
2017,08,18,10,05,17.30
2017,08,18,10,06,17.20
2017,08,18,10,07,17.20
2017,08,18,10,08,17.20
2017,08,18,10,09,17.20
2017,08,18,10,10,17.20
2017,08,18,10,11,17.30
2017,08,18,10,12,17.30
2017,08,18,10,13,17.30
2017,08,18,10,14,17.40
2017,08,18,10,15,17.40
2017,08,18,10,16,17.40
2017,08,18,10,17,17.40
2017,08,18,10,18,17.40
2017,08,18,10,19,17.40
2017,08,18,10,20,17.50
2017,08,18,10,21,17.60
2017,08,18,10,22,17.60
2017,08,18,10,23,17.70
2017,08,18,10,24,17.80
2017,08,18,10,25,17.80
2017,08,18,10,26,17.70
2017,08,18,10,27,17.60
2017,08,18,10,28,17.50
2017,08,18,10,29,17.50
2017,08,18,10,30,17.50
2017,08,18,10,31,17.50
2017,08,18,10,32,17.50
2017,08,18,10,33,17.60
2017,08,18,10,34,17.60
2017,08,18,10,35,17.60
2017,08,18,10,36,17.60
2017,08,18,10,37,17.60
2017,08,18,10,38,17.70
2017,08,18,10,39,17.70
2017,08,18,10,40,17.80
2017,08,18,10,41,17.80
2017,08,18,10,42,17.90
2017,08,18,10,43,17.90
2017,08,18,10,44,18.00
2017,08,18,10,45,18.10
2017,08,18,10,46,18.20
2017,08,18,10,47,18.20
2017,08,18,10,48,18.30
2017,08,18,10,49,18.40
2017,08,18,10,50,18.40
2017,08,18,10,51,18.40
2017,08,18,10,52,18.30
2017,08,18,10,53,18.40
2017,08,18,10,54,18.40
2017,08,18,10,55,18.40
2017,08,18,10,56,18.50
2017,08,18,10,57,18.50
2017,08,18,10,58,18.40
2017,08,18,10,59,18.30
2017,08,18,11,00,18.20
2017,08,18,11,01,18.20
2017,08,18,11,02,18.10
2017,08,18,11,03,18.10
2017,08,18,11,04,18.20
2017,08,18,11,05,18.20
2017,08,18,11,06,18.10
2017,08,18,11,07,18.10
2017,08,18,11,08,18.10
2017,08,18,11,09,18.20
2017,08,18,11,10,18.30
2017,08,18,11,11,18.50
2017,08,18,11,12,18.60
2017,08,18,11,13,18.60
2017,08,18,11,14,18.60
2017,08,18,11,15,18.60
2017,08,18,11,16,18.70
2017,08,18,11,17,18.70
2017,08,18,11,18,18.90
2017,08,18,11,19,19.00
2017,08,18,11,20,19.10
2017,08,18,11,21,19.20
2017,08,18,11,22,19.30
2017,08,18,11,23,19.30
2017,08,18,11,24,19.30
2017,08,18,11,25,19.30
2017,08,18,11,26,19.20
2017,08,18,11,27,19.10
2017,08,18,11,28,19.00
2017,08,18,11,29,19.00
2017,08,18,11,30,18.90
2017,08,18,11,31,18.80
2017,08,18,11,32,18.80
2017,08,18,11,33,18.70
2017,08,18,11,34,18.70
2017,08,18,11,35,18.70
2017,08,18,11,36,18.60
2017,08,18,11,37,18.60
2017,08,18,11,38,18.60
2017,08,18,11,39,18.60
2017,08,18,11,40,18.60
2017,08,18,11,41,18.70
2017,08,18,11,42,18.70
2017,08,18,11,43,18.70
2017,08,18,11,44,18.80
2017,08,18,11,45,18.80
2017,08,18,11,46,18.70
2017,08,18,11,47,18.70
2017,08,18,11,48,18.70
2017,08,18,11,49,18.70
2017,08,18,11,50,18.70
2017,08,18,11,51,18.70
2017,08,18,11,52,18.80
2017,08,18,11,53,18.90
2017,08,18,11,54,18.90
2017,08,18,11,55,19.00
2017,08,18,11,56,19.00
2017,08,18,11,57,19.10
2017,08,18,11,58,19.10
2017,08,18,11,59,19.00
2017,08,18,12,00,18.90
2017,08,18,12,01,18.90
2017,08,18,12,02,18.90
2017,08,18,12,03,19.00
2017,08,18,12,04,19.10
2017,08,18,12,05,19.10
2017,08,18,12,06,19.10
2017,08,18,12,07,19.20
2017,08,18,12,08,19.20
2017,08,18,12,09,19.30
2017,08,18,12,10,19.30
2017,08,18,12,11,19.40
2017,08,18,12,12,19.50
2017,08,18,12,13,19.60
2017,08,18,12,14,19.60
2017,08,18,12,15,19.70
2017,08,18,12,16,19.70
2017,08,18,12,17,19.60
2017,08,18,12,18,19.40
2017,08,18,12,19,19.30
2017,08,18,12,20,19.30
2017,08,18,12,21,19.30
2017,08,18,12,22,19.30
2017,08,18,12,23,19.30
2017,08,18,12,24,19.20
2017,08,18,12,25,19.10
2017,08,18,12,26,18.90
2017,08,18,12,27,18.70
2017,08,18,12,28,18.60
2017,08,18,12,29,18.50
2017,08,18,12,30,18.30
2017,08,18,12,31,18.20
2017,08,18,12,32,18.10
2017,08,18,12,33,18.10
2017,08,18,12,34,18.00
2017,08,18,12,35,18.00
2017,08,18,12,36,18.00
2017,08,18,12,37,17.90
2017,08,18,12,38,18.00
2017,08,18,12,39,18.00
2017,08,18,12,40,17.90
2017,08,18,12,41,18.00
2017,08,18,12,42,17.90
2017,08,18,12,43,17.90
2017,08,18,12,44,17.90
2017,08,18,12,45,17.90
2017,08,18,12,46,17.90
2017,08,18,12,47,18.00
2017,08,18,12,48,18.00
2017,08,18,12,49,18.10
2017,08,18,12,50,18.10
2017,08,18,12,51,18.20
2017,08,18,12,52,18.20
2017,08,18,12,53,18.20
2017,08,18,12,54,18.20
2017,08,18,12,55,18.30
2017,08,18,12,56,18.40
2017,08,18,12,57,18.50
2017,08,18,12,58,18.50
2017,08,18,12,59,18.60
2017,08,18,13,00,18.70
2017,08,18,13,01,18.80
2017,08,18,13,02,18.90
2017,08,18,13,03,18.90
2017,08,18,13,04,18.90
2017,08,18,13,05,18.90
2017,08,18,13,06,18.90
2017,08,18,13,07,18.80
2017,08,18,13,08,18.80
2017,08,18,13,09,18.90
2017,08,18,13,10,18.90
2017,08,18,13,11,19.00
2017,08,18,13,12,19.00
2017,08,18,13,13,19.10
2017,08,18,13,14,19.10
2017,08,18,13,15,19.10
2017,08,18,13,16,19.00
2017,08,18,13,17,18.90
2017,08,18,13,18,18.90
2017,08,18,13,19,18.80
2017,08,18,13,20,18.80
2017,08,18,13,21,18.70
2017,08,18,13,22,18.50
2017,08,18,13,23,18.40
2017,08,18,13,24,18.40
2017,08,18,13,25,18.40
2017,08,18,13,26,18.40
2017,08,18,13,27,18.40
2017,08,18,13,28,18.40
2017,08,18,13,29,18.40
2017,08,18,13,30,18.50
2017,08,18,13,31,18.50
2017,08,18,13,32,18.60
2017,08,18,13,33,18.70
2017,08,18,13,34,18.70
2017,08,18,13,35,18.70
2017,08,18,13,36,18.70
2017,08,18,13,37,18.70
2017,08,18,13,38,18.60
2017,08,18,13,39,18.70
2017,08,18,13,40,18.60
2017,08,18,13,41,18.60
2017,08,18,13,42,18.70
2017,08,18,13,43,18.70
2017,08,18,13,44,18.70
2017,08,18,13,45,18.80
2017,08,18,13,46,18.90
2017,08,18,13,47,18.90
2017,08,18,13,48,19.00
2017,08,18,13,49,19.10
2017,08,18,13,50,19.20
2017,08,18,13,51,19.20
2017,08,18,13,52,19.20
2017,08,18,13,53,19.10
2017,08,18,13,54,19.00
2017,08,18,13,55,19.00
2017,08,18,13,56,18.90
2017,08,18,13,57,18.90
2017,08,18,13,58,19.00
2017,08,18,13,59,19.00
2017,08,18,14,00,19.10
2017,08,18,14,01,19.10
2017,08,18,14,02,19.20
2017,08,18,14,03,19.20
2017,08,18,14,04,19.30
2017,08,18,14,05,19.50
2017,08,18,14,06,19.60
2017,08,18,14,07,19.80
2017,08,18,14,08,19.90
2017,08,18,14,09,20.00
2017,08,18,14,10,20.00
2017,08,18,14,11,20.10
2017,08,18,14,12,20.10
2017,08,18,14,13,20.20
2017,08,18,14,14,20.30
2017,08,18,14,15,20.30
2017,08,18,14,16,20.30
2017,08,18,14,17,20.30
2017,08,18,14,18,20.30
2017,08,18,14,19,20.30
2017,08,18,14,20,20.30
2017,08,18,14,21,20.30
2017,08,18,14,22,20.40
2017,08,18,14,23,20.50
2017,08,18,14,24,20.60
2017,08,18,14,25,20.70
2017,08,18,14,26,20.70
2017,08,18,14,27,20.70
2017,08,18,14,28,20.60
2017,08,18,14,29,20.50
2017,08,18,14,30,20.40
2017,08,18,14,31,20.40
2017,08,18,14,32,20.20
2017,08,18,14,33,20.00
2017,08,18,14,34,19.90
2017,08,18,14,35,19.70
2017,08,18,14,36,19.50
2017,08,18,14,37,19.50
2017,08,18,14,38,19.60
2017,08,18,14,39,19.70
2017,08,18,14,40,19.80
2017,08,18,14,41,19.80
2017,08,18,14,42,19.80
2017,08,18,14,43,19.70
2017,08,18,14,44,19.80
2017,08,18,14,45,19.90
2017,08,18,14,46,20.00
2017,08,18,14,47,20.10
2017,08,18,14,48,20.30
2017,08,18,14,49,20.40
2017,08,18,14,50,20.50
2017,08,18,14,51,20.60
2017,08,18,14,52,20.60
2017,08,18,14,53,20.60
2017,08,18,14,54,20.60
2017,08,18,14,55,20.60
2017,08,18,14,56,20.70
2017,08,18,14,57,20.70
2017,08,18,14,58,20.70
2017,08,18,14,59,20.60
2017,08,18,15,00,20.50
2017,08,18,15,01,20.50
2017,08,18,15,02,20.50
2017,08,18,15,03,20.60
2017,08,18,15,04,20.70
2017,08,18,15,05,20.80
2017,08,18,15,06,21.00
2017,08,18,15,07,21.10
2017,08,18,15,08,21.20
2017,08,18,15,09,21.30
2017,08,18,15,10,21.30
2017,08,18,15,11,21.30
2017,08,18,15,12,21.20
2017,08,18,15,13,21.20
2017,08,18,15,14,21.10
2017,08,18,15,15,21.10
2017,08,18,15,16,21.10
2017,08,18,15,17,21.10
2017,08,18,15,18,21.10
2017,08,18,15,19,21.20
2017,08,18,15,20,21.30
2017,08,18,15,21,21.30
2017,08,18,15,22,21.30
2017,08,18,15,23,21.40
2017,08,18,15,24,21.40
2017,08,18,15,25,21.50
2017,08,18,15,26,21.60
2017,08,18,15,27,21.60
2017,08,18,15,28,21.70
2017,08,18,15,29,21.80
2017,08,18,15,30,21.80
2017,08,18,15,31,21.80
2017,08,18,15,32,21.80
2017,08,18,15,33,21.80
2017,08,18,15,34,21.70
2017,08,18,15,35,21.60
2017,08,18,15,36,21.60
2017,08,18,15,37,21.50
2017,08,18,15,38,21.60
2017,08,18,15,39,21.60
2017,08,18,15,40,21.60
2017,08,18,15,41,21.70
2017,08,18,15,42,21.80
2017,08,18,15,43,21.90
2017,08,18,15,44,22.00
2017,08,18,15,45,22.10
2017,08,18,15,46,22.30
2017,08,18,15,47,22.40
2017,08,18,15,48,22.50
2017,08,18,15,49,22.60
2017,08,18,15,50,22.80
2017,08,18,15,51,22.80
2017,08,18,15,52,22.90
2017,08,18,15,53,22.90
2017,08,18,15,54,22.90
2017,08,18,15,55,22.90
2017,08,18,15,56,22.90
2017,08,18,15,57,22.90
2017,08,18,15,58,22.90
2017,08,18,15,59,22.90
2017,08,18,16,00,22.90
2017,08,18,16,01,22.90
2017,08,18,16,02,23.00
2017,08,18,16,03,23.00
2017,08,18,16,04,23.10
2017,08,18,16,05,23.10
2017,08,18,16,06,23.10
2017,08,18,16,07,23.10
2017,08,18,16,08,23.00
2017,08,18,16,09,23.10
2017,08,18,16,10,23.10
2017,08,18,16,11,23.10
2017,08,18,16,12,23.10
2017,08,18,16,13,23.10
2017,08,18,16,14,23.10
2017,08,18,16,15,23.10
2017,08,18,16,16,23.10
2017,08,18,16,17,23.20
2017,08,18,16,18,23.20
2017,08,18,16,19,23.20
2017,08,18,16,20,23.20
2017,08,18,16,21,23.20
2017,08,18,16,22,23.30
2017,08,18,16,23,23.30
2017,08,18,16,24,23.30
2017,08,18,16,25,23.30
2017,08,18,16,26,23.30
2017,08,18,16,27,23.30
2017,08,18,16,28,23.30
2017,08,18,16,29,23.30
2017,08,18,16,30,23.30
2017,08,18,16,31,23.30
2017,08,18,16,32,23.30
2017,08,18,16,33,23.30
2017,08,18,16,34,23.30
2017,08,18,16,35,23.30
2017,08,18,16,36,23.30
2017,08,18,16,37,23.40
2017,08,18,16,38,23.40
2017,08,18,16,39,23.50
2017,08,18,16,40,23.60
2017,08,18,16,41,23.60
2017,08,18,16,42,23.60
2017,08,18,16,43,23.60
2017,08,18,16,44,23.70
2017,08,18,16,45,23.80
2017,08,18,16,46,23.80
2017,08,18,16,47,23.90
2017,08,18,16,48,23.90
2017,08,18,16,49,23.90
2017,08,18,16,50,23.90
2017,08,18,16,51,23.90
2017,08,18,16,52,24.00
2017,08,18,16,53,24.10
2017,08,18,16,54,24.10
2017,08,18,16,55,24.10
2017,08,18,16,56,24.10
2017,08,18,16,57,24.10
2017,08,18,16,58,24.10
2017,08,18,16,59,24.10
2017,08,18,17,00,24.00
2017,08,18,17,01,24.00
2017,08,18,17,02,24.00
2017,08,18,17,03,23.90
2017,08,18,17,04,24.00
2017,08,18,17,05,24.00
2017,08,18,17,06,24.10
2017,08,18,17,07,24.10
2017,08,18,17,08,24.10
2017,08,18,17,09,24.20
2017,08,18,17,10,24.10
2017,08,18,17,11,24.10
2017,08,18,17,12,24.10
2017,08,18,17,13,24.10
2017,08,18,17,14,24.10
2017,08,18,17,15,24.10
2017,08,18,17,16,24.10
2017,08,18,17,17,24.10
2017,08,18,17,18,24.10
2017,08,18,17,19,24.00